Погода в Нестеровской

Россия / Республика Ингушетия     43°14′17″N   45°02′56″E
темп.,
°C
ветер,
м/с
пор.,
м/с
влажн.,
%
обл.,
%
осадки,
мм/ч
давл.,
гПа
погр.,
м
8 мая, сб
сб800:00+10ююз22755 0.0 101915
03:00+10ююз22765 0.0 101913
06:00+12ююв11742 0.0 101822
09:00+17в465714 0.0 1016624
12:00+21в5544100 0.0 10141078
15:00+21всв4446100 0.0 10131270
18:00+17всв266788 0.0 1013241
21:00+12ююв11855 0.1 101311
9 мая, вс
вс900:00+12зюз228333 0.1 101214
03:00+11ююз228137 0.1 101015
06:00+13зюз227523 0.0 101045
09:00+20ссв115624 0.0 1008529
12:00+22ссв43567 0.0 10071250
15:00+15з71187100 3.9 1009611
18:00+8зсз81693100 9.8 1017803
21:00+6з71294100 12.6 10211084
10 мая, пн
пн1000:00+5зюз5995100 2.1 10231113
03:00+5юз599096 2.8 1024655
06:00+7зюз378382 0.1 1023450
09:00+10зсз4655100 0.2 10231872
12:00+11сз355678 0.1 10221464
15:00+11зсз135295 0.3 10201497
18:00+10зсз1269100 0.3 1021494
21:00+7з2492100 1.9 1023209
11 мая, вт
вт1100:00+6зюз359399 0.3 1022202
03:00+6юз1191100 0.3 102189
06:00+6юв248997 0.1 1021383
09:00+10в686976 0.1 10191090
12:00+12всв555783 0.0 10181338
15:00+13в556169 0.0 10181178
18:00+11всв367321 0.0 1018335
21:00+7в118972 0.0 101911
12 мая, ср
ср1200:00+6ю11920 0.0 101811
03:00+5зюз1192100 0.0 101811
06:00+7з11860 0.0 101874
09:00+12ссв226925 0.0 1016768
12:00+16всв336175 0.0 10151220
15:00+17всв225884 0.0 10141326
18:00+16всв236996 0.0 101595
21:00+10юв22900 0.0 101612